Home   Weather   San Diego   Past weeks

Flag for USA Past Weather in San Diego, California, USA — Yesterday and Last 2 Weeks

Now
75 °F

Sunny.


Feels Like: 75 °F
Forecast: 60 / 79 °F
Wind: 5 mph from Southwest

Location: San Diego - North Island

Current Time: Apr 29, 2017 at 10:49:42 am

Latest Report: Apr 29, 2017 at 9:52 am


Visibility: 10 mi

Pressure: 29.96 "Hg

Humidity: 15%

Dew Point: 24 °F

Location of San DiegoLocation

Past Weather in San Diego — Graph

°F

San Diego Temperature Yesterday

Maximum temperature yesterday: 73 °F (at 2:52 pm)
Minimum temperature yesterday: 61 °F (at 12:52 am)
Average temperature yesterday: 65 °F

High & Low Weather Summary for the Past Weeks

 TemperatureHumidityPressure
High78 °F (Apr 22, 1:52 pm)93% (Apr 18, 4:52 am)30.13 "Hg (Apr 18, 4:52 am)
Low54 °F (Apr 15, 5:52 am)28% (Apr 15, 5:52 pm)29.75 "Hg (Apr 28, 4:52 pm)
Average64 °F74%29.94 "Hg
* Reported Apr 14 8:52 am — Apr 29 8:52 am, San Diego, Weather by CustomWeather, © 2017

Note: Actual official high and low records may vary slightly from our data, if they occured in-between our weather recording intervals... More about our weather records

Advertising

San Diego Weather History for the Previous 24 Hours

Scroll right to see more
 ConditionsComfort  
Time TempWeatherWind HumidityBarometerVisibility
8:52 am
Sat, Apr 29
65 °FSunny.5 mph68%29.95 "Hg10 mi
7:52 am57 °FSunny.No wind74%29.94 "Hg10 mi
6:52 am57 °FSunny.No wind74%29.91 "Hg10 mi
5:52 am59 °FClear.No wind78%29.89 "Hg10 mi
4:52 am59 °FClear.5 mph78%29.87 "Hg10 mi
3:52 am59 °FClear.5 mph78%29.86 "Hg10 mi
2:52 am62 °FClear.3 mph75%29.84 "Hg9 mi
1:52 am61 °FClear.7 mph78%29.84 "Hg10 mi
12:52 am63 °FClear.5 mph75%29.83 "Hg9 mi
11:52 pm
Fri, Apr 28
61 °FClear.3 mph81%29.82 "Hg10 mi
10:52 pm62 °FClear.6 mph80%29.82 "Hg8 mi
9:52 pm63 °FPassing clouds.No wind73%29.81 "Hg8 mi
8:52 pm64 °FPassing clouds.No wind68%29.79 "Hg10 mi
7:52 pm66 °FPassing clouds.5 mph63%29.77 "Hg10 mi
6:52 pm68 °FBroken clouds.6 mph59%29.76 "Hg10 mi
5:52 pm69 °FBroken clouds.6 mph55%29.75 "Hg10 mi
4:52 pm70 °FBroken clouds.10 mph55%29.75 "Hg10 mi
3:52 pm70 °FBroken clouds.14 mph57%29.75 "Hg10 mi
2:52 pm73 °FBroken clouds.16 mph48%29.77 "Hg10 mi
1:52 pm72 °FBroken clouds.10 mph53%29.78 "Hg10 mi
12:52 pm69 °FPartly sunny.7 mph63%29.79 "Hg10 mi
11:52 am66 °FScattered clouds.10 mph75%29.80 "Hg8 mi
10:52 am67 °FScattered clouds.10 mph73%29.81 "Hg8 mi
Weather by CustomWeather, © 2017

See weather overviewHow to use our weather pages